350  
ASUS44 KLZK 221605  
RWRLZK  
 
WEATHER ROUNDUP FOR ARKANSAS  
NATIONAL WEATHER SERVICE LITTLE ROCK AR  
1100 AM CDT THU JUN 22 2017  
 
NOTE: "FAIR" INDICATES FEW OR NO CLOUDS BELOW 12,000 FEET WITH NO  
SIGNIFICANT WEATHER AND/OR S TO VISIBILITY
.  
 
ARZ001-003-010-029-221700-  
NORTHWEST ARKANSAS  
 
CITY SKY/WX TMP DP RH WIND PRES REMARKS
 
FAYETTEVILLE CLOUDY 78 72 81 SE10 29.80F  
FORT SMITH CLOUDY 81 74 79 E12 29.76F HX 86  
HARRISON CLOUDY 75 72 90 SE12 29.84F  
BENTONVILLE CLOUDY 79 70 73 SE8 29.82S  
ROGERS CLOUDY 78 71 79 E8 29.82S  
SILOAM SPGS CLOUDY 79 70 73 SE6 29.80F  
HIGHFILL CLOUDY 78 71 79 SE9 29.81F  
SPRINGDALE CLOUDY 79 72 78 SE13 29.83F  

 
 
ARZ004-005-016-221700-  
NORTH CENTRAL ARKANSAS  
 
CITY SKY/WX TMP DP RH WIND PRES REMARKS
 
BATESVILLE CLOUDY 79 73 83 SE8 29.82F  
FLIPPIN CLOUDY 77 68 73 CALM 29.81F  
MTN HOME CLOUDY 77 71 82 VRB7 29.83F  

 
 
ARZ040-041-221700-  
WEST CENTRAL ARKANSAS  
 
CITY SKY/WX TMP DP RH WIND PRES REMARKS
 
MENA CLOUDY 79 77 94 E9 29.77F  
MOUNT IDA CLOUDY 79 74 84 SE8 29.75S  

 
 
ARZ009-017-025-026-028-221700-  
NORTHEAST ARKANSAS  
 
CITY SKY/WX TMP DP RH WIND PRES REMARKS
 
JONESBORO LGT RAIN 77 76 96 SE10 29.84S  
WALNUT RIDGE CLOUDY 79 72 78 SE7 29.84F  
BLYTHEVILLE CLOUDY 81 75 82 S14G20 29.87S HX 87  
NW BLYTHEVILLE CLOUDY 81 73 78 SE12G23 29.86S HX 85  

 
 
ARZ022-023-033-042-044-221700-  
CENTRAL ARKANSAS  
 
CITY SKY/WX TMP DP RH WIND PRES REMARKS
 
LITTLE ROCK CLOUDY 79 76 90 E8 29.79S  
N LITTLE ROCK N/A 77 74 92 E7 29.78F  
JACKSONVILLE PTSUNNY 80 78 96 E7 29.79S HX 86  
CONWAY N/A 79 75 89 SE8G14 29.77F  
SEARCY CLOUDY 82 76 81 SE9 29.82F HX 89  
HOT SPRINGS CLOUDY 79 32 18 E10 29.77F  
RUSSELLVILLE CLOUDY 78 74 87 E8 29.78F  
CLINTON CLOUDY 77 73 88 VRB6 29.81F  

 
 
ARZ036-221700-  
EAST ARKANSAS  
 
CITY SKY/WX TMP DP RH WIND PRES REMARKS
 
WEST MEMPHIS CLOUDY 81 77 88 SE13 29.82F HX 88  

 
 
ARZ050-053-066-070-073-221700-  
SOUTHWEST ARKANSAS  
 
CITY SKY/WX TMP DP RH WIND PRES REMARKS
 
ARKADELPHIA CLOUDY 79 75 87 E5 29.75S  
CAMDEN CLOUDY 77 75 94 NE7 29.72F  
TEXARKANA CLOUDY 79 75 87 NE8 29.70F  
EL DORADO CLOUDY 79 77 94 E10 29.71F  
DE QUEEN PTSUNNY 82 76 81 E13 29.70F HX 89  

 
 
ARZ056-057-069-221700-  
SOUTHEAST ARKANSAS  
 
CITY SKY/WX TMP DP RH WIND PRES REMARKS
 
PINE BLUFF LGT RAIN 83 75 77 SE15 29.77F HX 90  
STUTTGART CLOUDY N/A N/A N/A SE13G21 29.80S  
MONTICELLO PTSUNNY 83 76 79 SE9 29.76F HX 91  
 

 
 
 
 
CLICK HERE TO GO TO PREVIOUS BULLETINS.

The Nexlab AR Page Main Text Page